CW4549 Weather Reports


Display with metric or nautical units.
time (UTC)temp
F
wind
direction
speed
MPH
gust
MPH
rain 1hr
in
rain 24hr
in
rain mn
in
humidity
%
barometer
mb
20260510234516 66 0.0 2.0 0.00 0.01 0.01 44 1011.4
20260510233017 66 0.0 3.0 0.00 0.01 0.01 44 1011.3
20260510231517 67 0.0 7.0 0.00 0.01 0.01 46 1011.4
20260510230016 68 0.0 1.0 0.00 0.01 0.01 42 1011.3
20260510224516 68 0.0 4.0 0.00 0.01 0.01 43 1011.2
20260510223016 69 0.0 5.0 0.00 0.01 0.01 42 1011.1
20260510221516 69 0.0 5.0 0.00 0.01 0.01 41 1011.2
20260510220058 70 68 1.0 10.0 0.00 0.01 0.01 41 1011.1
20260510214536 70 0.0 7.0 0.00 0.01 0.01 40 1010.9
20260510213016 70 45 1.0 7.0 0.00 0.01 0.01 39 1010.8
20260510211516 70 90 1.0 7.0 0.00 0.01 0.01 39 1010.6
20260510210016 70 0.0 3.0 0.00 0.01 0.01 42 1010.5
20260510204516 70 68 1.0 8.0 0.00 0.01 0.01 38 1010.3
20260510203016 71 45 1.0 6.0 0.00 0.01 0.01 39 1010.3
20260510201516 72 45 1.0 8.0 0.00 0.01 0.01 38 1010.7
20260510200018 72 158 1.0 6.0 0.00 0.01 0.01 37 1010.6
20260510194516 72 68 1.0 6.0 0.00 0.01 0.01 36 1010.7
20260510193016 71 45 1.0 7.0 0.00 0.01 0.01 38 1010.7
20260510191538 71 45 1.0 7.0 0.00 0.01 0.01 37 1010.7
20260510190016 71 158 1.0 6.0 0.00 0.01 0.01 38 1010.6
20260510184516 71 45 1.0 9.0 0.00 0.01 0.01 40 1010.6
20260510183017 71 225 1.0 5.0 0.00 0.01 0.01 37 1010.6
20260510181518 70 68 1.0 7.0 0.00 0.01 0.01 42 1010.7
20260510180016 70 45 1.0 7.0 0.00 0.01 0.01 38 1010.7
20260510174517 70 45 1.0 8.0 0.00 0.01 0.01 39 1010.6
20260510173016 70 45 1.0 6.0 0.00 0.01 0.01 41 1010.7
20260510171516 69 45 1.0 11.0 0.00 0.01 0.01 41 1010.7
20260510170016 70 45 1.0 8.0 0.00 0.01 0.01 42 1010.5
20260510164523 69 90 1.0 10.0 0.00 0.01 0.01 42 1010.4
20260510163016 69 45 1.0 7.0 0.00 0.01 0.01 43 1010.6
20260510161516 68 68 1.0 6.0 0.00 0.01 0.01 41 1010.8
20260510160018 68 45 1.0 9.0 0.00 0.01 0.01 42 1010.5
20260510154516 67 45 1.0 7.0 0.00 0.01 0.01 45 1010.2
20260510153016 67 45 1.0 8.0 0.00 0.01 0.01 44 1010.4
20260510151516 66 45 2.0 9.0 0.00 0.01 0.01 49 1010.4
20260510150018 66 68 1.0 10.0 0.00 0.01 0.01 51 1010.1
20260510144536 65 0.0 7.0 0.00 0.01 0.01 56 1009.8
20260510143037 63 0.0 3.0 0.00 0.01 0.01 60 1009.7
20260510141538 62 0.0 3.0 0.00 0.01 0.01 71 1009.8
20260510140038 62 0.0 6.0 0.00 0.01 0.01 74 1009.5
20260510134516 61 0.0 5.0 0.00 0.01 0.01 68 1009.3
20260510133018 59 90 1.0 7.0 0.00 0.01 0.01 77 1009.1
20260510131537 57 90 1.0 5.0 0.00 0.01 0.01 84 1008.8
20260510130018 56 0.0 3.0 0.00 0.01 0.01 93 1008.4
20260510124538 56 0.0 1.0 0.00 0.01 0.01 98 1008.3
20260510123037 56 0.0 2.0 0.00 0.02 0.01 97 1008.1
20260510121517 56 0.0 2.0 0.00 0.02 0.01 98 1007.7
20260510120037 55 0.0 0.0 0.00 0.02 0.01 97 1007.2
20260510114517 55 0.0 1.0 0.01 0.02 0.01 97 1007.1
20260510113017 55 0.0 1.0 0.01 0.02 0.01 96 1007.0
20260510111517 56 0.0 2.0 0.01 0.03 0.01 96 1006.7
20260510110017 56 0.0 1.0 0.01 0.03 0.01 95 1007.0
20260510104517 56 0.0 0.0 0.00 0.02 0.00 95 1007.1
20260510103039 56 0.0 0.0 0.00 0.02 0.00 95 1006.9
20260510101557 56 0.0 0.0 0.00 0.04 0.00 95 1006.3
20260510100057 56 0.0 1.0 0.00 0.06 0.00 95 1005.8
20260510094517 56 0.0 0.0 0.00 0.08 0.00 94 1005.7
20260510093017 56 0.0 0.0 0.00 0.08 0.00 93 1005.6
20260510091517 56 0.0 0.0 0.00 0.09 0.00 93 1005.4
20260510090037 56 0.0 0.0 0.00 0.09 0.00 91 1005.3
20260510084537 56 0.0 0.0 0.00 0.10 0.00 91 1005.1
20260510083017 56 0.0 3.0 0.00 0.11 0.00 91 1005.2
20260510081517 56 0.0 5.0 0.00 0.12 0.00 90 1005.1
20260510080100 56 0.0 2.0 0.00 0.13 0.00 89 1004.9
20260510074518 57 0.0 0.0 0.00 0.13 0.00 89 1004.2
20260510073017 57 0.0 0.0 0.00 0.14 0.00 88 1004.1
20260510071559 58 0.0 0.0 0.00 0.14 0.00 86 1004.2
20260510070018 58 0.0 0.0 0.00 0.14 0.00 85 1004.3
20260510064537 58 0.0 1.0 0.00 0.15 0.00 84 1004.2
20260510063017 59 0.0 0.0 0.00 0.15 0.00 81 1004.4
20260510061517 60 0.0 2.0 0.00 0.15 0.00 80 1004.4
20260510060037 59 0.0 0.0 0.00 0.15 0.00 86 1004.8
20260510054519 58 0.0 0.0 0.00 0.15 0.00 88 1004.6
20260510053019 57 0.0 0.0 0.00 0.15 0.00 90 1004.5
20260510051517 57 0.0 0.0 0.00 0.15 0.00 91 1004.5
20260510050017 57 0.0 0.0 0.00 0.15 0.00 90 1004.7
20260510044517 57 0.0 0.0 0.00 0.15 0.00 90 1004.7
20260510043017 57 0.0 0.0 0.00 0.15 0.00 89 1004.7
20260510041537 58 0.0 0.0 0.00 0.15 0.00 88 1004.7
20260510040015 58 0.0 0.0 0.00 0.15 0.00 87 1004.7
20260510034517 58 0.0 0.0 0.00 0.15 0.15 86 1004.5
20260510033016 58 0.0 0.0 0.00 0.15 0.15 87 1004.4
20260510031516 59 0.0 0.0 0.00 0.15 0.15 86 1004.4
20260510030016 59 0.0 0.0 0.00 0.15 0.15 85 1004.3
20260510024516 60 0.0 0.0 0.00 0.15 0.15 84 1004.2
20260510023016 60 0.0 0.0 0.00 0.15 0.15 81 1004.1
20260510021518 61 0.0 0.0 0.00 0.15 0.15 79 1003.9
20260510020016 62 0.0 0.0 0.00 0.15 0.15 77 1003.7
20260510014516 63 0.0 0.0 0.00 0.15 0.15 75 1003.5
20260510013038 64 0.0 0.0 0.00 0.15 0.15 72 1003.2
20260510011516 66 0.0 0.0 0.00 0.15 0.15 66 1003.1
20260510010056 67 0.0 0.0 0.00 0.15 0.15 60 1003.0
20260510004517 69 0.0 0.0 0.00 0.15 0.15 59 1002.7
20260510003016 70 0.0 2.0 0.00 0.15 0.15 55 1002.4
20260510001559 71 0.0 1.0 0.00 0.15 0.15 52 1002.1
20260510000038 72 0.0 3.0 0.00 0.15 0.15 49 1002.0